STARLINK-35652, 66393

Orbit data source: Space-Track

STARLINK-35652, 66393 is a payload satellite owned by SpaceX/Seattle (US) in LEO that was launched on Sat, 08 Nov 2025 UTC via an FALCON 9 launch vehicle from the Air Force Eastern Test Range (AFETR). Payload-class satellites include a variety of spacecraft equipped with specific instruments for various scientific and technological missions. These include communications satellites like Starlink; space stations such as the ISS; scientific satellites like the Hubble; Earth observation satellites from companies like Planet Labs, Umbra, and HawkEye 360; GPS; miniature CubeSats for education and research; and military/defense satellites.

Loading next visibility...
Identifier
66393, 2025-257P
Orbit
LEO
Country
Flag of USUS
Related business
Manufacturer
SpaceX/Seattle
Mission
Operational Commercial Communications
Bus & Motor
STARLINK V2MO, Unknown motor
Mass
575 kg wet, ~530 kg dry
Launch date (UTC)
2025-11-08 (7 months ago)
Launch vehicle
FALCON 9
Launch site
Air Force Eastern Test Range (AFETR)
Object type
Payload
Rocket body
Debris
Shape & HBR
Box + 2 Pan, 17.7 m
Radar Cross Section
36.964 m², Large (>1 m²)

Expand to show TLE details & history
Last TLE update: 9 hours ago

TLE from 9 hours ago
0 STARLINK-35652
1 66393U 25257P   26171.46191156  .00699657  00000-0  21019-1 0  9994
2 66393  53.1607  99.9942 0001703  58.3917 301.7250 15.31785595 35462
Epoch: 2026-06-20T11:05Z
TLE epoch observation values (Epoch: 2026-06-20T11:05:09.158Z)
Latitude
-0.00008°
Longitude
25.02979°
Altitude
470.772 km
Speed
7.632 km/s
True Right ascension
06h 39m 58s
True Declination
0° 00' 00"
Sunlit
Object was in daylight at epoch
Visualization orbit readout
Latitude
Unknown
Longitude
Unknown
Altitude
Unknown
Speed
Unknown
Apparent Right ascension
Unknown
Apparent Declination
Unknown
Sunlit
N/A
Visualization observer readout
Local Sidereal Time
07:17:45
Azimuth
Unknown
Elevation
Unknown
Doppler factor
Unknown
Orbital elements
Apogee altitude
471.908 km
Perigee altitude
469.575 km
Semi-major axis
6,848.878 km
Eccentricity
0.00017
Inclination
53.1607°
RAAN
99.9942°
Arg. of periapsis
58.3917°
True anomaly
301.7084°
Mean anomaly
301.725°
Eccentric anomaly
301.7167°
Mean motion
3.82925 °/min
Orbital period
94.01 mins
BSTAR
0.021019
Loading maneuver chart data...
Computing Atmospheric mass density...
Loading historical data...
Loading historical data...
Loading historical data...
Loading historical data...
Loading historical data...
Loading historical data...
Loading historical data...

Documentation

Showing up to 5 results
|